Regional Weather Roundup
Issued by NWS

Home | Current Version | Previous Version | Graphics & Text | Print | Product List | Glossary Off
Versions: 1 2 3 4 5 6 7 8 9 10 11 12 13 14 15 16 17 18 19 20 21 22 23 24 25 26 27 28 29 30 31 32 33 34 35 36 37 38 39 40 41 42 43 44 45 46 47 48 49 50

000
ASUS43 KDTX 161310
RWRMI
MICHIGAN HOURLY REGIONAL WEATHER ROUNDUP
NATIONAL WEATHER SERVICE DETROIT/PONTIAC MI
800 AM EST SAT DEC 16 2017

NOTE: "FAIR" INDICATES FEW OR NO CLOUDS BELOW 12,000 FEET WITH NO
SIGNIFICANT WEATHER AND/OR OBSTRUCTION TO VISIBILITY.

MIZ047>049-052>055-059>063-066>070-074>076-081>083-161400-
SOUTHEAST LOWER MICHIGAN

CITY           SKY/WX    TMP DP  RH WIND       PRES   REMARKS
ADRIAN         CLOUDY    32  24  72 SW12      29.92  WCI  23
ALMA           CLOUDY    22  21  96 CALM      29.93R
ANN ARBOR      CLOUDY    32  24  72 S7        29.90R WCI  26
BAD AXE        LGT SNOW  20  18  92 CALM      29.94R
CARO           LGT SNOW  21  19  93 CALM      29.92S
DETROIT CITY   CLOUDY    32  25  75 W6        29.93R WCI  26
DETROIT        CLOUDY    34  25  69 SW12      29.92R WCI  25
FLINT          FLURRIES  23  20  88 NE7       29.92R WCI  15
GROSSE ILE     CLOUDY    34  25  69 SW10      29.92R WCI  26
HILLSDALE      CLOUDY    32  23  69 SW8       29.89R WCI  25
HOWELL         CLOUDY    26  26  98 NE3       29.90R

CITY           SKY/WX    TMP DP  RH WIND       PRES   REMARKS
JACKSON        CLOUDY    33  23  66 SW8       29.90R WCI  26
LAMBERTVILLE   CLOUDY    34  24  67 SW8       29.93S WCI  27
LANSING        CLOUDY    25  23  92 NE6       29.91R WCI  18
LAPEER         LGT SNOW  23  21  95 CALM      29.92R
MASON          CLOUDY    32  26  76 NW3       29.90R
MONROE         CLOUDY    34  23  65 SW9       29.92S WCI  26
MT. CLEMENS    LGT SNOW  27  27 100 N7        29.92R FOG     WCI  19
PONTIAC        LGT SNOW  25  23  92 NE5       29.89R FOG     WCI  19
PORT HOPE        N/A     22  17  81 SW6       29.92R WCI  14
PORT HURON     LGT SNOW  23  21  93 CALM      29.94R
TRI CITIES     LGT SNOW  21  20  96 CALM      29.94R FOG
MIDLAND        FLURRIES  21  19  93 CALM      29.93R
TROY           CLOUDY    27  25  91 CALM      29.94R FOG
SAGINAW HB     LGT SNOW  21  21 100 CALM      29.93S
$$
MIZ043>046-050>051-056>058-064>065-071>073-077>080-161400-
SOUTHWEST LOWER MICHIGAN

CITY           SKY/WX    TMP DP  RH WIND       PRES   REMARKS
BATTLE CREEK   CLOUDY    32  24  72 SW6       29.88R WCI  26
BENTON HARBOR  CLOUDY    37  25  61 S7        29.87S WCI  32
BIG RAPIDS     CLOUDY    20  17  89 CALM      29.89R
COLDWATER      CLOUDY    33  25  70 SW9       29.90R WCI  26
HOLLAND        CLOUDY    35  31  85 NE6       29.87R WCI  30
GRAND RAPIDS   LGT SNOW  26  24  92 NE9       29.89R FOG     WCI  17
IONIA          FLURRIES  24  22  92 NE7       29.90R WCI  16
KALAMAZOO      MOCLDY    33  25  72 S8        29.88R WCI  26
LUDINGTON      CLOUDY    22  18  87 E6        29.90R WCI  14
MARSHALL       CLOUDY    32  24  71 SW7       29.89R WCI  26
MOUNT PLEASANT FLURRIES  22  19  91 CALM      29.92R
MUSKEGON       FLURRIES  26  21  81 NE9       29.90R WCI  17
SOUTH HAVEN    CLOUDY    38  29  71 SW8       29.86F WCI  32
$$
MIZ016>042-161400-
NORTHERN LOWER MICHIGAN

CITY           SKY/WX    TMP DP  RH WIND       PRES   REMARKS
ALPENA         CLOUDY    14  11  87 N7        29.96R WCI   4
BEAVER ISLAND  LGT SNOW  17  13  86 NE3       29.96R
BELLAIRE       FLURRIES  18  16  91 NE5       29.95R WCI  11
CADILLAC       CLOUDY    17  14  91 CALM      29.86R
CHARLEVOIX     CLOUDY    15  11  84 E12       29.98R WCI   2
FRANKFORT      CLOUDY    22  17  78 E3        29.92R
GAYLORD        LGT SNOW  12   8  84 NE7       29.90R FOG     WCI   1
GRAYLING       CLOUDY    16  12  86 CALM      29.91R
HARBOR SPRINGS CLOUDY    11   6  83 NE9       29.96R WCI  -2
HOUGHTON LAKE  CLOUDY    15  13  91 NE3       29.90R
MANISTEE       FLURRIES  19  16  88 E6        29.91R WCI  11
OSCODA         CLOUDY    17  12  81 N6        29.94R WCI   8
PELLSTON       CLOUDY     9   6  88 SE3       29.98R FOG
ROGERS CITY    FLURRIES  15  11  82 N7        29.98R WCI   5
TRAVERSE CITY  CLOUDY    15  12  88 CALM      29.91R
$$
MIZ007>008-015-161400-
EASTERN UPPER MICHIGAN

CITY           SKY/WX    TMP DP  RH WIND       PRES   REMARKS
KINROSS        CLOUDY     1  -4  79 NE9       29.99R WCI -14
MACKINAC ISLAN CLOUDY     9   2  72 NE15      29.98R WCI  -8
NEWBERRY       CLOUDY     9   8  97 NE10      29.96R WCI  -6
S. S. MARIE    CLOUDY     1  -8  66 E7        30.00R WCI -12
MUNISING         N/A     12   9  87 SE10G17   29.96R WCI  -1
$$
MIZ004>006-011>014-085-161400-
CENTRAL UPPER MICHIGAN

CITY           SKY/WX    TMP DP  RH WIND       PRES   REMARKS
MANISTIQUE     CLOUDY     9   4  81 NE9       29.97R WCI  -4
ESCANABA       CLOUDY    10   5  80 N3        29.96R
MENOMINEE      CLOUDY    14   7  73 N8        29.94R WCI   3
SAWYER-GWINN   PTCLDY    -4  -8  84 CALM      29.90R
$$
MIZ001>003-009>011-084-161400-
WESTERN UPPER MICHIGAN

CITY           SKY/WX    TMP DP  RH WIND       PRES   REMARKS
IRON MOUNTAIN  CLOUDY     6   2  83 CALM      29.89R
HOUGHTON       CLOUDY    12   6  77 NE10      29.89R WCI  -1
COPPER HARBOR    N/A     17   9  70 SE7       29.95R WCI   8
IRONWOOD       CLOUDY     9   5  84 E3        29.87R
$$

ABBREVIATIONS USED IN REMARKS
   TC - TEMPERATURE IN CELSIUS
  WCI - WIND CHILL INDEX
   HX - HEAT INDEX
  VSB - VISIBILITY





USA.gov is the U.S. government's official web portal to all federal, state and local government web resources and services.